Regional Weather Roundup
Issued by NWS Raleigh/Durham, NC

Current Version | Previous Version | Text Only | Print | Product List | Glossary On
Versions: 1 2 3 4 5 6 7 8 9 10 11 12 13 14 15 16 17 18 19 20 21 22 23 24 25 26 27 28 29 30 31 32 33 34 35 36 37 38 39 40 41 42 43 44 45 46 47 48 49
000 ASUS42 KRAH 060210 RWRRAH NORTH CAROLINA WEATHER ROUNDUP NATIONAL WEATHER SERVICE RALEIGH NC 900 PM EST FRI MAR 05 2021 NOTE: "FAIR" INDICATES FEW OR NO CLOUDS BELOW 12,000 FEET WITH NO SIGNIFICANT WEATHER AND/OR OBSTRUCTIONS TO VISIBILITY. NCZ001-053-055-056-065-067-060300- WESTERN NORTH CAROLINA CITY SKY/WX TMP DP RH WIND PRES REMARKS ASHEVILLE MOCLDY 41 16 36 N12G21 30.14R JEFFERSON MOCLDY 32 7 35 NW12G18 30.08S WCI 23 MORGANTON MOCLDY 43 16 33 CALM 30.18S HICKORY MOCLDY 45 13 27 NW8 30.13R WILKESBORO NOT AVBL RUTHERFORDTON MOCLDY 46 10 23 NE5 30.14R MOUNT AIRY NOT AVBL BOONE N/A 33 5 31 NW16G22 30.10S WCI 23 $$ NCZ021-022-025-041-071-084-088-060300- CENTRAL NORTH CAROLINA CITY SKY/WX TMP DP RH WIND PRES REMARKS CHARLOTTE MOCLDY 47 22 37 N6 30.14R GREENSBORO PTCLDY 41 10 28 N3 30.12R WINSTON-SALEM PTCLDY 44 8 23 NW8 30.15R RALEIGH-DURHAM PTCLDY 42 17 36 CALM 30.12R FORT BRAGG CLEAR 36 28 72 CALM 30.11R FAYETTEVILLE PTCLDY 42 25 50 W5 30.12R BURLINGTON PTCLDY 44 9 23 VRB6 30.12R ROXBORO PTCLDY 36 14 41 N3 30.14S HENDERSON PTCLDY 38 8 29 NW5 30.11R WCI 34 LOUISBURG PTCLDY 37 14 38 CALM 30.14R LAURINBURG PTCLDY 41 26 55 CALM 30.14R $$ NCZ011-015-027-028-043-044-047-080-103-060300- NORTHEASTERN NORTH CAROLINA CITY SKY/WX TMP DP RH WIND PRES REMARKS ROCKY MT-WILSO PTCLDY 39 23 52 CALM 30.11R GREENVILLE PTCLDY 36 28 75 CALM 30.13R WASHINGTON PTCLDY 39 20 45 CALM 30.12R ELIZABETH CITY CLEAR 36 20 52 CALM 30.09R MANTEO CLEAR 32 25 76 CALM 30.10R CAPE HATTERAS CLEAR 32 26 78 CALM 30.11R $$ NCZ078-087-090-091-093-098-101-060300- SOUTHEASTERN NORTH CAROLINA CITY SKY/WX TMP DP RH WIND PRES REMARKS GOLDSBORO PTCLDY 42 19 39 CALM 30.10R KINSTON CLEAR 36 27 69 CALM 30.12R KENANSVILLE CLEAR 30 27 86 CALM 30.12S NEW BERN PTCLDY 38 26 62 SW3 30.13R CHERRY POINT CLEAR 37 26 64 CALM 30.12R BEAUFORT CLEAR 38 27 64 CALM 30.11R JACKSONVILLE CLEAR 37 29 72 CALM 30.12R WILMINGTON CLEAR 41 30 65 CALM 30.12R $$

USA.gov is the U.S. government's official web portal to all federal, state and local government web resources and services.